Voltar ao catálogo

STARLINK-35434

AtivoComunicaçõesVLEO
NORAD 66246·PAYLOAD·🇺🇸 United States

Lançado Oct 29, 2025 de Cape Canaveral Space Force Station

Loading…

Próximas Passagens (próximas 24 horas)

TLE

AtualizadoSource: CelesTrak SupGP

Época: Sep 15, 2026, 03:23 UTC

1 66246C 25245N   26258.14145833  .00026998  00000+0  86814-3 0  2585
2 66246  53.1574 122.5785 0001278  81.2039 191.4884 15.31690418    16

Acompanhe STARLINK-35434 em tempo real com AllMySat

Download on the App Store